DAL4522 MTPP-MKJP

Flight info

Callsign DAL4522
Flight time 0h 51m
Altitude 32000
Route MAROT1F MAROT DCT AVALU L577 KEBET DCT BADOW
Aircraft B738/M-SDE2E3FGHIRWXY/LB1

Departure

Time 2026-04-27 13:20
Airport Toussaint Louverture International Airport (MTPP)

Arrival

Time 2026-04-27 14:11
Airport Norman Manley International Airport (MKJP)
Time Latitude Longitude Altitude Speed Heading
2026-04-27 13:09 18.57616 -72.29431 106 ft 0 kts 179°
2026-04-27 13:14 18.57624 -72.29431 106 ft 4 kts 182°
2026-04-27 13:14 18.57649 -72.29425 105 ft 4 kts 217°
2026-04-27 13:14 18.57661 -72.29405 105 ft 2 kts 266°
2026-04-27 13:14 18.57662 -72.29403 105 ft 1 kts 267°
2026-04-27 13:16 18.57682 -72.29443 105 ft 13 kts 319°
2026-04-27 13:16 18.57788 -72.29460 105 ft 17 kts 356°
2026-04-27 13:16 18.57906 -72.29466 104 ft 17 kts 357°
2026-04-27 13:17 18.57987 -72.29541 104 ft 20 kts 276°
2026-04-27 13:17 18.57982 -72.29721 101 ft 28 kts 267°
2026-04-27 13:17 18.57972 -72.29927 101 ft 27 kts 267°
2026-04-27 13:17 18.57962 -72.30118 97 ft 25 kts 266°
2026-04-27 13:18 18.57953 -72.30297 95 ft 24 kts 267°
2026-04-27 13:18 18.57944 -72.30483 92 ft 28 kts 267°
2026-04-27 13:18 18.57903 -72.30642 89 ft 13 kts 238°
2026-04-27 13:18 18.57916 -72.30679 89 ft 4 kts 342°
2026-04-27 13:19 18.57934 -72.30663 88 ft 2 kts 82°
2026-04-27 13:19 18.57940 -72.30547 92 ft 52 kts 87°
2026-04-27 13:19 18.57975 -72.29869 101 ft 131 kts 87°
2026-04-27 13:19 18.58041 -72.28694 278 ft 183 kts 86°
2026-04-27 13:20 18.58120 -72.27261 729 ft 213 kts 87°
2026-04-27 13:20 18.58189 -72.25634 1426 ft 230 kts 88°
2026-04-27 13:20 18.58179 -72.23910 2282 ft 239 kts 96°
2026-04-27 13:20 18.57877 -72.22130 2899 ft 255 kts 101°
2026-04-27 13:21 18.57542 -72.20282 3784 ft 257 kts 101°
2026-04-27 13:21 18.57225 -72.18431 4746 ft 258 kts 101°
2026-04-27 13:21 18.56868 -72.16550 5544 ft 264 kts 102°
2026-04-27 13:21 18.56501 -72.14646 6436 ft 267 kts 102°
2026-04-27 13:22 18.56152 -72.12709 7207 ft 272 kts 101°
2026-04-27 13:22 18.55850 -72.10719 7978 ft 276 kts 101°
2026-04-27 13:22 18.55488 -72.08725 8788 ft 279 kts 101°
2026-04-27 13:22 18.55584 -72.06671 9530 ft 288 kts 72°
2026-04-27 13:23 18.56654 -72.04879 10254 ft 296 kts 43°
2026-04-27 13:23 18.58416 -72.03763 10930 ft 300 kts 17°
2026-04-27 13:23 18.60503 -72.03518 11439 ft 311 kts 352°
2026-04-27 13:23 18.62633 -72.04183 11604 ft 331 kts 330°
2026-04-27 13:24 18.64478 -72.05710 11778 ft 348 kts 307°
2026-04-27 13:24 18.65747 -72.07936 12044 ft 361 kts 291°
2026-04-27 13:24 18.66507 -72.10474 12573 ft 365 kts 278°
2026-04-27 13:24 18.66701 -72.13142 13281 ft 365 kts 269°
2026-04-27 13:25 18.66681 -72.15828 13970 ft 367 kts 267°
2026-04-27 13:25 18.66620 -72.18535 14559 ft 370 kts 267°
2026-04-27 13:25 18.66565 -72.21259 15138 ft 373 kts 267°
2026-04-27 13:25 18.66526 -72.24002 15719 ft 376 kts 268°
2026-04-27 13:26 18.66500 -72.26766 16289 ft 378 kts 268°
2026-04-27 13:26 18.66483 -72.29549 16863 ft 381 kts 269°
2026-04-27 13:26 18.66467 -72.32347 17411 ft 383 kts 269°
2026-04-27 13:26 18.66450 -72.35161 17949 ft 385 kts 269°
2026-04-27 13:27 18.66212 -72.37941 18405 ft 388 kts 256°
2026-04-27 13:27 18.65400 -72.40697 18875 ft 389 kts 251°
2026-04-27 13:27 18.64538 -72.43365 19336 ft 390 kts 251°
2026-04-27 13:27 18.63653 -72.46078 19788 ft 392 kts 251°
2026-04-27 13:28 18.62772 -72.48807 20235 ft 394 kts 252°
2026-04-27 13:28 18.61897 -72.51554 20673 ft 396 kts 252°
2026-04-27 13:28 18.61027 -72.54313 21121 ft 397 kts 252°
2026-04-27 13:28 18.60160 -72.57083 21557 ft 399 kts 252°
2026-04-27 13:29 18.59290 -72.59871 21980 ft 401 kts 252°
2026-04-27 13:29 18.58417 -72.62670 22398 ft 403 kts 252°
2026-04-27 13:29 18.57541 -72.65481 22805 ft 405 kts 252°
2026-04-27 13:29 18.56660 -72.68306 23212 ft 407 kts 252°
2026-04-27 13:30 18.55773 -72.71150 23598 ft 409 kts 252°
2026-04-27 13:30 18.54883 -72.73999 23939 ft 410 kts 252°
2026-04-27 13:30 18.53989 -72.76857 24281 ft 411 kts 252°
2026-04-27 13:30 18.53093 -72.79722 24621 ft 412 kts 252°
2026-04-27 13:31 18.52194 -72.82596 24946 ft 413 kts 252°
2026-04-27 13:31 18.51293 -72.85476 25268 ft 415 kts 252°
2026-04-27 13:31 18.50388 -72.88365 25583 ft 416 kts 252°
2026-04-27 13:31 18.49479 -72.91263 25895 ft 417 kts 252°
2026-04-27 13:32 18.48644 -72.94188 26192 ft 418 kts 257°
2026-04-27 13:32 18.48180 -72.97218 26486 ft 419 kts 263°
2026-04-27 13:32 18.47886 -73.00275 26787 ft 421 kts 264°
2026-04-27 13:32 18.47632 -73.03353 27069 ft 422 kts 264°
2026-04-27 13:33 18.47378 -73.06440 27341 ft 424 kts 264°
2026-04-27 13:33 18.47110 -73.09528 27613 ft 425 kts 264°
2026-04-27 13:33 18.46828 -73.12630 27886 ft 426 kts 263°
2026-04-27 13:33 18.46535 -73.15738 28143 ft 427 kts 263°
2026-04-27 13:34 18.46237 -73.18860 28394 ft 428 kts 263°
2026-04-27 13:34 18.45938 -73.21984 28641 ft 430 kts 263°
2026-04-27 13:34 18.45637 -73.25124 28896 ft 431 kts 263°
2026-04-27 13:34 18.45333 -73.28265 29204 ft 431 kts 262°
2026-04-27 13:35 18.44950 -73.31382 29590 ft 428 kts 261°
2026-04-27 13:35 18.44501 -73.34468 30008 ft 426 kts 260°
2026-04-27 13:35 18.44030 -73.37544 30385 ft 423 kts 259°
2026-04-27 13:35 18.43569 -73.40557 30689 ft 422 kts 259°
2026-04-27 13:36 18.43110 -73.43598 31001 ft 420 kts 259°
2026-04-27 13:36 18.42660 -73.46632 31347 ft 418 kts 259°
2026-04-27 13:36 18.42218 -73.49651 31704 ft 416 kts 259°
2026-04-27 13:36 18.41780 -73.52660 32031 ft 415 kts 259°
2026-04-27 13:37 18.40900 -73.58718 32056 ft 421 kts 259°
2026-04-27 13:37 18.40014 -73.64811 32058 ft 419 kts 259°
2026-04-27 13:38 18.39133 -73.70859 32057 ft 416 kts 259°
2026-04-27 13:38 18.38256 -73.76865 32071 ft 414 kts 259°
2026-04-27 13:39 18.37378 -73.82851 32061 ft 413 kts 259°
2026-04-27 13:39 18.36500 -73.88840 32059 ft 414 kts 259°
2026-04-27 13:40 18.35617 -73.94845 32054 ft 415 kts 259°
2026-04-27 13:40 18.34732 -74.00851 32073 ft 416 kts 259°
2026-04-27 13:41 18.33841 -74.06890 32074 ft 419 kts 259°
2026-04-27 13:41 18.32942 -74.12972 32054 ft 421 kts 259°
2026-04-27 13:42 18.32039 -74.19076 32052 ft 422 kts 259°
2026-04-27 13:42 18.31133 -74.25190 32057 ft 423 kts 259°
2026-04-27 13:43 18.30229 -74.31271 32052 ft 423 kts 259°
2026-04-27 13:43 18.29318 -74.37387 32051 ft 423 kts 259°
2026-04-27 13:44 18.28405 -74.43501 32046 ft 422 kts 259°
2026-04-27 13:44 18.27494 -74.49596 32045 ft 421 kts 259°
2026-04-27 13:45 18.26582 -74.55677 32042 ft 421 kts 259°
2026-04-27 13:45 18.25669 -74.61756 32042 ft 420 kts 259°
2026-04-27 13:46 18.24576 -74.67781 32037 ft 418 kts 251°
2026-04-27 13:46 18.22775 -74.73592 32037 ft 418 kts 251°
2026-04-27 13:47 18.20961 -74.79404 32040 ft 419 kts 251°
2026-04-27 13:47 18.19212 -74.85058 32056 ft 419 kts 251°
2026-04-27 13:48 18.17429 -74.90849 32032 ft 413 kts 251°
2026-04-27 13:48 18.15659 -74.96598 32055 ft 413 kts 251°
2026-04-27 13:49 18.14766 -74.99494 31530 ft 419 kts 251°
2026-04-27 13:49 18.13869 -75.02404 30901 ft 418 kts 251°
2026-04-27 13:49 18.12972 -75.05311 30236 ft 418 kts 251°
2026-04-27 13:49 18.12075 -75.08217 29630 ft 416 kts 252°
2026-04-27 13:50 18.11187 -75.11092 29009 ft 411 kts 252°
2026-04-27 13:50 18.10310 -75.13931 28087 ft 406 kts 252°
2026-04-27 13:50 18.09441 -75.16741 27527 ft 402 kts 252°
2026-04-27 13:50 18.08579 -75.19526 26961 ft 399 kts 252°
2026-04-27 13:51 18.07723 -75.22290 26458 ft 396 kts 252°
2026-04-27 13:51 18.06873 -75.25034 25959 ft 393 kts 252°
2026-04-27 13:51 18.06029 -75.27758 25466 ft 391 kts 252°
2026-04-27 13:51 18.05188 -75.30468 24955 ft 389 kts 253°
2026-04-27 13:52 18.04351 -75.33165 24458 ft 388 kts 253°
2026-04-27 13:52 18.03518 -75.35851 23964 ft 386 kts 253°
2026-04-27 13:52 18.02696 -75.38497 23442 ft 386 kts 253°
2026-04-27 13:52 18.01854 -75.41206 22890 ft 384 kts 253°
2026-04-27 13:53 18.00219 -75.46462 21901 ft 378 kts 253°
2026-04-27 13:53 17.99405 -75.49077 21417 ft 376 kts 253°
2026-04-27 13:53 17.98596 -75.51677 20945 ft 373 kts 253°
2026-04-27 13:54 17.97790 -75.54262 20474 ft 371 kts 253°
2026-04-27 13:54 17.96990 -75.56830 20011 ft 369 kts 253°
2026-04-27 13:54 17.96192 -75.59388 19550 ft 367 kts 253°
2026-04-27 13:54 17.95398 -75.61933 19073 ft 366 kts 253°
2026-04-27 13:55 17.94605 -75.64474 18608 ft 365 kts 252°
2026-04-27 13:55 17.93813 -75.67008 18112 ft 365 kts 252°
2026-04-27 13:55 17.93025 -75.69531 17608 ft 363 kts 252°
2026-04-27 13:55 17.92240 -75.72043 17121 ft 361 kts 252°
2026-04-27 13:56 17.91459 -75.74537 16656 ft 359 kts 252°
2026-04-27 13:56 17.90682 -75.77020 16202 ft 356 kts 252°
2026-04-27 13:56 17.89911 -75.79484 15757 ft 354 kts 252°
2026-04-27 13:56 17.89144 -75.81932 15315 ft 352 kts 252°
2026-04-27 13:57 17.88380 -75.84369 14882 ft 351 kts 251°
2026-04-27 13:57 17.87620 -75.86792 14449 ft 349 kts 251°
2026-04-27 13:57 17.86862 -75.89209 14007 ft 348 kts 251°
2026-04-27 13:57 17.86107 -75.91616 13547 ft 346 kts 251°
2026-04-27 13:58 17.85355 -75.94009 13085 ft 345 kts 251°
2026-04-27 13:58 17.84607 -75.96391 12637 ft 342 kts 251°
2026-04-27 13:58 17.83864 -75.98754 12208 ft 340 kts 251°
2026-04-27 13:58 17.83373 -76.00314 11920 ft 339 kts 251°
2026-04-27 13:59 17.82644 -76.02635 11755 ft 329 kts 250°
2026-04-27 13:59 17.81938 -76.04880 11601 ft 319 kts 250°
2026-04-27 13:59 17.81252 -76.07059 11465 ft 310 kts 250°
2026-04-27 13:59 17.80585 -76.09176 11329 ft 301 kts 250°
2026-04-27 14:00 17.79938 -76.11231 11209 ft 292 kts 250°
2026-04-27 14:00 17.79309 -76.13226 11083 ft 284 kts 250°
2026-04-27 14:00 17.78696 -76.15168 10935 ft 277 kts 250°
2026-04-27 14:00 17.78092 -76.17085 10654 ft 277 kts 250°
2026-04-27 14:01 17.77485 -76.19006 10393 ft 278 kts 250°
2026-04-27 14:01 17.76876 -76.20932 10112 ft 278 kts 250°
2026-04-27 14:01 17.76266 -76.22863 9812 ft 279 kts 250°
2026-04-27 14:01 17.75657 -76.24792 9495 ft 279 kts 250°
2026-04-27 14:02 17.75049 -76.26715 9265 ft 275 kts 250°
2026-04-27 14:02 17.74452 -76.28605 9147 ft 272 kts 250°
2026-04-27 14:02 17.73924 -76.30502 9005 ft 270 kts 262°
2026-04-27 14:02 17.74107 -76.32441 8722 ft 271 kts 288°
2026-04-27 14:03 17.74853 -76.34264 8424 ft 274 kts 295°
2026-04-27 14:03 17.75682 -76.36072 8112 ft 275 kts 295°
2026-04-27 14:03 17.76508 -76.37856 7792 ft 270 kts 295°
2026-04-27 14:03 17.77318 -76.39613 7459 ft 264 kts 295°
2026-04-27 14:04 17.78102 -76.41327 7110 ft 258 kts 295°
2026-04-27 14:04 17.78867 -76.43011 6754 ft 253 kts 295°
2026-04-27 14:04 17.79617 -76.44668 6410 ft 249 kts 295°
2026-04-27 14:04 17.80348 -76.46289 6099 ft 243 kts 295°
2026-04-27 14:05 17.81053 -76.47853 5797 ft 238 kts 295°
2026-04-27 14:05 17.81751 -76.49405 5475 ft 234 kts 295°
2026-04-27 14:05 17.82439 -76.50936 5191 ft 230 kts 295°
2026-04-27 14:05 17.83123 -76.52456 4902 ft 226 kts 295°
2026-04-27 14:06 17.83775 -76.53909 4609 ft 220 kts 295°
2026-04-27 14:06 17.84420 -76.55344 4332 ft 213 kts 295°
2026-04-27 14:06 17.85041 -76.56738 4072 ft 210 kts 294°
2026-04-27 14:06 17.85594 -76.58135 3808 ft 202 kts 292°
2026-04-27 14:07 17.86105 -76.59467 3557 ft 192 kts 292°
2026-04-27 14:07 17.86598 -76.60750 3320 ft 187 kts 292°
2026-04-27 14:07 17.87087 -76.62019 3090 ft 188 kts 292°
2026-04-27 14:07 17.87582 -76.63300 2862 ft 190 kts 292°
2026-04-27 14:08 17.88083 -76.64593 2642 ft 192 kts 292°
2026-04-27 14:08 17.88582 -76.65878 2410 ft 187 kts 291°
2026-04-27 14:08 17.89065 -76.67125 2134 ft 182 kts 292°
2026-04-27 14:08 17.89527 -76.68317 1940 ft 169 kts 291°
2026-04-27 14:09 17.89960 -76.69436 1700 ft 162 kts 292°
2026-04-27 14:09 17.90378 -76.70514 1504 ft 158 kts 292°
2026-04-27 14:09 17.90795 -76.71589 1297 ft 160 kts 292°
2026-04-27 14:09 17.91213 -76.72669 1059 ft 159 kts 292°
2026-04-27 14:10 17.91629 -76.73743 816 ft 158 kts 292°
2026-04-27 14:10 17.92050 -76.74814 574 ft 160 kts 292°
2026-04-27 14:10 17.92487 -76.75902 379 ft 162 kts 290°
2026-04-27 14:10 17.92890 -76.76998 171 ft 160 kts 289°
2026-04-27 14:11 17.93304 -76.78078 27 ft 157 kts 292°
2026-04-27 14:11 17.93635 -76.78934 22 ft 73 kts 291°
2026-04-27 14:11 17.93781 -76.79186 19 ft 23 kts 322°
2026-04-27 14:11 17.93890 -76.79215 19 ft 2 kts 43°
2026-04-27 14:12 17.93892 -76.79177 19 ft 11 kts 105°
2026-04-27 14:12 17.93853 -76.79073 20 ft 16 kts 112°
2026-04-27 14:12 17.93812 -76.78965 21 ft 16 kts 111°
2026-04-27 14:12 17.93772 -76.78860 20 ft 16 kts 112°
2026-04-27 14:13 17.93726 -76.78742 23 ft 19 kts 112°
2026-04-27 14:13 17.93674 -76.78608 22 ft 21 kts 112°
2026-04-27 14:13 17.93617 -76.78459 22 ft 23 kts 112°
2026-04-27 14:13 17.93555 -76.78302 26 ft 23 kts 112°
2026-04-27 14:14 17.93530 -76.78168 24 ft 15 kts 51°
2026-04-27 14:14 17.93581 -76.78093 24 ft 13 kts 97°
2026-04-27 14:14 17.93574 -76.78052 24 ft 0 kts 102°